Armant, Egypt

12:03 PM EET on February 22, 2018 (GMT +0200)
Armant

Weather History for 62405 - December, 2013

Change the Weather History Date:

Monday, December 16, 2013

  Actual Average Record
Temperature  
Mean Temperature 54 °F -  
Max Temperature 67 °F 71 °F - ()
Min Temperature 42 °F 45 °F - ()
Degree Days  
Heating Degree Days 10    
Growing Degree Days 4 (Base 50)    
Moisture  
Dew Point 39 °F    
Average Humidity 55    
Maximum Humidity 76    
Minimum Humidity 28    
Precipitation  
Precipitation 0.00 in 0.00 in - ()
Sea Level Pressure  
Sea Level Pressure 30.20 in    
Wind  
Wind Speed 1 mph ()    
Max Wind Speed 7 mph    
Max Gust Speed -    
Visibility 6.0 miles    
Events      
T = Trace of Precipitation, MM = Missing Value Source: Averaged Metar Reports

Daily Weather History Graph

Daily Weather History Graph

Search for Another Location

Airport or City:

Trip Planner

Search our weather history database for the weather conditions in past years. The results will help you decide how hot, cold, wet, or windy it might be!

Date:

Astronomy

Dec. 16, 2013 Rise Set
Actual Time 6:28 AM EET 5:01 PM EET
Civil Twilight 6:03 AM EET 5:26 PM EET
Nautical Twilight 5:34 AM EET 5:55 PM EET
Astronomical Twilight 5:06 AM EET 6:23 PM EET
Moon 4:30 PM EET (12/16) 5:25 AM EET (12/16)
Length of Visible Light 11h 23m
Length of Day
10h 32m
Waxing Gibbous, 99% of the Moon is Illuminated
Dec 16
Waxing Gibbous
Dec 17
Full
Dec 25
Last Quarter
Jan 1
New
Jan 8
First Quarter

Hourly Weather History & Observations

Time (EET) Temp. Dew Point Humidity Pressure Visibility Wind Dir Wind Speed Gust Speed Precip Events Conditions
12:00 AM 50.0 °F 41.0 °F 71% 30.24 in - Calm Calm - N/A   Clear
1:00 AM 48.2 °F 37.4 °F 66% 30.21 in - Calm Calm - N/A   Clear
2:00 AM 48 °F 37 °F 57% 30.23 in 6 mi Calm Calm - -  
2:00 AM 48.2 °F 37.4 °F 66% 30.21 in - Calm Calm - N/A   Clear
3:00 AM 48.2 °F 37.4 °F 66% 30.21 in - Calm Calm - N/A   Clear
4:00 AM 44.6 °F 37.4 °F 76% 30.21 in - ESE 1.2 mph - N/A   Clear
5:00 AM 44 °F 37 °F 68% 30.25 in 6 mi Calm Calm - -  
5:00 AM 44.6 °F 37.4 °F 76% 30.21 in - Calm Calm - N/A   Clear
6:00 AM 44.6 °F 37.4 °F 76% 30.21 in - Calm Calm - N/A   Clear
7:00 AM 42.8 °F 35.6 °F 76% 30.24 in - Calm Calm - N/A   Clear
8:00 AM 48 °F 38 °F 59% 30.27 in 6 mi SE 2.3 mph - -  
8:00 AM 48.2 °F 37.4 °F 66% 30.24 in - SE 2.3 mph - N/A   Clear
9:00 AM 55.4 °F 41.0 °F 58% 30.24 in - Calm Calm - N/A   Clear
10:00 AM 59.0 °F 42.8 °F 55% 30.24 in - Calm Calm - N/A   Clear
11:00 AM 61 °F 42 °F 38% 30.25 in 6 mi Calm Calm - -  
11:00 AM 60.8 °F 44.6 °F 55% 30.24 in - Calm Calm - N/A   Clear
12:00 PM 64.4 °F 44.6 °F 49% 30.18 in - Calm Calm - N/A   Clear
1:00 PM 66.2 °F 42.8 °F 43% 30.15 in - NNW 3.5 mph - N/A   Clear
2:00 PM 67 °F 42 °F 28% 30.15 in 6 mi West 5.8 mph - -  
2:00 PM 66.2 °F 41.0 °F 40% 30.15 in - West 5.8 mph - N/A   Clear
3:00 PM 66.2 °F 41.0 °F 40% 30.15 in - NNW 2.3 mph - N/A   Clear
4:00 PM 64.4 °F 39.2 °F 40% 30.15 in - West 6.9 mph - N/A   Clear
5:00 PM 62 °F 38 °F 30% 30.16 in 6 mi WNW 4.6 mph - -  
5:00 PM 62.6 °F 39.2 °F 42% 30.15 in - WNW 4.6 mph - N/A   Clear
6:00 PM 57.2 °F 39.2 °F 51% 30.15 in - West 2.3 mph - N/A   Clear
7:00 PM 55.4 °F 39.2 °F 54% 30.15 in - West 2.3 mph - N/A   Clear
8:00 PM 53 °F 38 °F 46% 30.19 in 6 mi Calm Calm - -  
8:00 PM 53.6 °F 39.2 °F 58% 30.18 in - Calm Calm - N/A   Clear
9:00 PM 51.8 °F 33.8 °F 50% 30.18 in - Calm Calm - N/A   Clear
10:00 PM 51.8 °F 33.8 °F 50% 30.18 in - South 2.3 mph - N/A   Clear
11:00 PM 50 °F 35 °F 46% 30.19 in 6 mi SSE 3.5 mph - -  
11:00 PM 50.0 °F 35.6 °F 58% 30.18 in - SSE 3.5 mph - N/A   Clear